FW8685 Weather Reports


Display with metric or nautical units.
time (UTC)temp
F
wind
direction
speed
MPH
gust
MPH
rain 1hr
in
rain 24hr
in
rain mn
in
humidity
%
barometer
mb
20260502224022 69 253 3.0 10.0 0.00 0.04 0.02 27 1016.1
20260502223523 69 0 2.0 10.0 0.00 0.04 0.02 30 1016.3
20260502223041 69 298 6.0 10.0 0.00 0.04 0.02 28 1016.3
20260502222523 69 336 4.0 8.0 0.00 0.04 0.02 28 1016.3
20260502222023 69 211 3.0 7.0 0.00 0.04 0.02 30 1016.3
20260502221537 69 292 3.0 9.0 0.00 0.04 0.02 30 1016.4
20260502221022 69 53 2.0 9.0 0.00 0.04 0.02 31 1016.4
20260502220522 68 5 2.0 7.0 0.00 0.04 0.02 31 1016.5
20260502220039 69 132 3.0 7.0 0.00 0.04 0.02 31 1016.4
20260502215522 69 128 1.0 8.0 0.00 0.04 0.02 32 1016.6
20260502215021 69 0 1.0 9.0 0.00 0.04 0.02 32 1016.7
20260502214540 69 294 4.0 9.0 0.00 0.04 0.02 30 1016.7
20260502214023 69 232 3.0 8.0 0.00 0.04 0.02 33 1016.7
20260502213522 69 225 3.0 9.0 0.00 0.04 0.02 30 1016.8
20260502213039 69 90 0.0 9.0 0.00 0.04 0.02 31 1016.9
20260502212524 69 28 4.0 9.0 0.00 0.04 0.02 34 1017.0
20260502212023 69 333 2.0 11.0 0.00 0.04 0.02 34 1017.1
20260502211543 69 281 4.0 13.0 0.00 0.04 0.02 29 1017.1
20260502211023 68 337 6.0 13.0 0.00 0.04 0.02 29 1017.2
20260502210522 68 275 6.0 13.0 0.00 0.04 0.02 29 1017.3
20260502210040 68 0 4.0 12.0 0.00 0.04 0.02 31 1017.4
20260502205523 68 343 2.0 13.0 0.00 0.04 0.02 31 1017.6
20260502205025 68 13 6.0 13.0 0.00 0.04 0.02 34 1017.6
20260502204540 68 360 5.0 11.0 0.00 0.04 0.02 31 1017.6
20260502204022 68 5 2.0 11.0 0.00 0.04 0.02 30 1017.6
20260502203522 68 22 6.0 14.0 0.00 0.04 0.02 35 1017.7
20260502203039 68 287 7.0 14.0 0.00 0.04 0.02 31 1017.7
20260502202522 67 52 5.0 14.0 0.00 0.04 0.02 34 1017.7
20260502202022 67 47 3.0 14.0 0.00 0.04 0.02 32 1017.8
20260502201538 68 306 6.0 12.0 0.00 0.04 0.02 33 1017.8
20260502201023 68 275 4.0 11.0 0.00 0.04 0.02 33 1017.8
20260502200523 67 306 1.0 13.0 0.00 0.04 0.02 33 1017.8
20260502200036 68 314 4.0 14.0 0.00 0.04 0.02 31 1017.8
20260502195523 68 333 7.0 14.0 0.00 0.04 0.02 35 1017.8
20260502195022 67 360 5.0 14.0 0.00 0.04 0.02 38 1017.9
20260502194541 67 78 2.0 8.0 0.00 0.04 0.02 37 1017.9
20260502194022 66 311 2.0 11.0 0.00 0.04 0.02 34 1018.0
20260502193537 67 342 4.0 14.0 0.00 0.04 0.02 34 1018.1
20260502193038 67 28 6.0 14.0 0.00 0.04 0.02 32 1018.3
20260502192526 66 22 6.0 12.0 0.00 0.04 0.02 40 1018.2
20260502192022 66 81 4.0 12.0 0.00 0.04 0.02 32 1018.3
20260502191537 67 55 7.0 14.0 0.00 0.04 0.02 34 1018.5
20260502191022 66 36 7.0 14.0 0.00 0.04 0.02 37 1018.5
20260502190522 66 339 5.0 11.0 0.00 0.04 0.02 36 1018.5
20260502190041 65 315 2.0 15.0 0.00 0.04 0.02 32 1018.5
20260502185522 66 43 5.0 15.0 0.00 0.04 0.02 38 1018.6
20260502185023 65 0 6.0 17.0 0.00 0.04 0.02 35 1018.7
20260502184549 65 269 6.0 17.0 0.00 0.04 0.02 33 1018.8
20260502184022 66 287 6.0 13.0 0.00 0.04 0.02 35 1018.8
20260502183523 65 302 4.0 12.0 0.00 0.04 0.02 35 1018.9
20260502183051 65 11 3.0 13.0 0.00 0.04 0.02 34 1019.1
20260502182524 65 311 7.0 13.0 0.00 0.04 0.02 36 1019.0
20260502182023 65 9 7.0 13.0 0.00 0.04 0.02 36 1019.1
20260502181543 64 134 5.0 10.0 0.00 0.04 0.02 38 1019.1
20260502181022 65 123 6.0 11.0 0.00 0.04 0.02 42 1018.9
20260502180523 63 159 3.0 12.0 0.00 0.04 0.02 37 1019.1
20260502164022 62 9 8.0 15.0 0.00 0.04 0.02 40 1019.8
20260502163522 62 57 6.0 12.0 0.00 0.04 0.02 46 1020.0
20260502163044 61 29 5.0 12.0 0.00 0.04 0.02 40 1019.9
20260502162525 61 48 7.0 13.0 0.00 0.04 0.02 44 1019.8
20260502162029 61 34 7.0 14.0 0.00 0.04 0.02 41 1019.9
20260502161541 61 26 9.0 14.0 0.00 0.04 0.02 41 1020.0
20260502161024 60 348 6.0 12.0 0.00 0.04 0.02 41 1019.9
20260502160525 60 51 7.0 12.0 0.00 0.04 0.02 41 1020.1
20260502152024 58 62 5.0 11.0 0.00 0.04 0.02 50 1020.2
20260502151543 58 41 5.0 11.0 0.00 0.04 0.02 48 1020.2
20260502151024 57 70 6.0 14.0 0.00 0.04 0.02 48 1020.3
20260502150524 56 79 8.0 15.0 0.00 0.04 0.02 49 1020.2
20260502130524 46 42 5.0 10.0 0.00 0.04 0.02 78 1019.4
20260502123522 43 53 4.0 8.0 0.00 0.04 0.02 86 1019.1
20260502123041 42 49 4.0 8.0 0.00 0.04 0.02 86 1019.1
20260502122523 42 45 3.0 5.0 0.00 0.04 0.02 86 1019.0
20260502122023 42 42 3.0 5.0 0.00 0.04 0.02 86 1018.9
20260502121538 42 57 3.0 6.0 0.00 0.04 0.02 86 1018.8
20260502121023 41 42 3.0 8.0 0.00 0.04 0.02 85 1018.7
20260502120523 41 42 5.0 8.0 0.00 0.04 0.02 85 1018.7
20260502115522 41 36 4.0 6.0 0.00 0.04 0.02 83 1018.5
20260502115024 41 32 3.0 4.0 0.00 0.04 0.02 83 1018.6
20260502114544 42 39 2.0 5.0 0.00 0.04 0.02 83 1018.5
20260502114022 42 30 2.0 6.0 0.00 0.04 0.02 83 1018.5
20260502113524 42 40 3.0 6.0 0.00 0.04 0.02 83 1018.4
20260502113040 42 51 3.0 6.0 0.00 0.04 0.02 84 1018.2
20260502112521 42 37 3.0 7.0 0.00 0.04 0.02 84 1018.2
20260502112027 42 42 4.0 7.0 0.00 0.04 0.02 84 1018.1
20260502111536 42 52 4.0 10.0 0.00 0.04 0.02 85 1018.1
20260502111023 42 35 5.0 10.0 0.00 0.04 0.02 85 1018.0
20260502110521 42 39 5.0 9.0 0.00 0.04 0.02 86 1018.1
20260502110039 43 41 4.0 7.0 0.00 0.04 0.02 87 1018.1
20260502105525 43 53 4.0 6.0 0.00 0.04 0.02 87 1018.0
20260502105024 43 41 4.0 7.0 0.00 0.04 0.02 87 1017.9
20260502104547 43 49 4.0 8.0 0.00 0.04 0.02 88 1018.0
20260502104025 43 43 5.0 8.0 0.00 0.04 0.02 88 1017.9
20260502103524 43 38 5.0 7.0 0.00 0.04 0.02 88 1017.9
20260502103039 43 40 5.0 6.0 0.00 0.04 0.02 89 1017.8
20260502102525 43 40 4.0 7.0 0.00 0.04 0.02 89 1017.9
20260502102024 43 46 4.0 7.0 0.00 0.04 0.02 89 1017.8
20260502101604 43 51 3.0 6.0 0.00 0.04 0.02 90 1017.9
20260502101025 43 52 3.0 6.0 0.00 0.04 0.02 90 1017.9
20260502100525 43 57 3.0 7.0 0.00 0.04 0.02 90 1017.8
20260502091024 46 52 3.0 9.0 0.00 0.04 0.02 90 1017.5
20260502090521 46 53 4.0 9.0 0.00 0.04 0.02 90 1017.5
20260502071536 50 315 2.0 4.0 0.00 0.04 0.02 87 1017.9
20260502071024 50 217 1.0 3.0 0.00 0.04 0.02 87 1017.8
20260502070523 50 216 0.0 4.0 0.00 0.04 0.02 87 1017.7
20260502070052 50 0 0.0 4.0 0.00 0.04 0.02 87 1017.4
20260502065521 50 220 2.0 4.0 0.00 0.04 0.02 86 1017.4
20260502065022 50 204 2.0 6.0 0.00 0.04 0.02 86 1017.5
20260502064538 50 284 2.0 6.0 0.00 0.04 0.02 86 1017.6
20260502064022 50 287 0.0 4.0 0.01 0.04 0.02 85 1017.3
20260502063523 51 56 1.0 4.0 0.01 0.04 0.02 84 1017.3
20260502063039 51 82 2.0 3.0 0.01 0.04 0.02 84 1017.3
20260502062523 51 0 1.0 6.0 0.01 0.04 0.02 83 1017.3
20260502062023 51 36 2.0 6.0 0.02 0.04 0.02 83 1017.3
20260502061538 51 34 3.0 8.0 0.02 0.04 0.02 83 1017.2
20260502061021 51 32 4.0 11.0 0.02 0.04 0.02 83 1017.0
20260502060525 52 0 1.0 11.0 0.02 0.04 0.02 84 1017.2
20260502060038 52 11 6.0 10.0 0.02 0.04 0.02 85 1017.4
20260502055522 52 284 5.0 11.0 0.02 0.04 0.02 84 1017.2
20260502055023 52 177 5.0 11.0 0.03 0.04 0.02 83 1017.2
20260502054540 52 44 3.0 5.0 0.03 0.04 0.02 85 1017.7
20260502054023 52 317 3.0 6.0 0.02 0.03 0.01 84 1017.7
20260502053523 52 327 3.0 6.0 0.02 0.03 0.01 83 1017.4
20260502053036 52 355 2.0 6.0 0.02 0.03 0.01 83 1017.3
20260502052521 52 322 4.0 6.0 0.03 0.03 0.01 83 1017.0
20260502052025 52 313 0.0 7.0 0.02 0.02 0.00 82 1016.6
20260502051555 52 155 2.0 9.0 0.02 0.02 0.00 82 1016.4
20260502051022 52 169 5.0 9.0 0.02 0.02 0.00 82 1016.2
20260502050520 52 154 6.0 10.0 0.02 0.02 0.00 82 1016.3
20260502050039 52 198 5.0 12.0 0.02 0.02 0.00 82 1016.4
20260502045523 52 182 6.0 12.0 0.02 0.02 0.02 82 1016.5
20260502045023 52 236 5.0 11.0 0.01 0.01 0.01 82 1016.5
20260502044554 52 173 6.0 10.0 0.01 0.01 0.01 82 1016.3
20260502044022 52 165 5.0 8.0 0.01 0.01 0.01 82 1016.6
20260502043522 52 150 3.0 6.0 0.01 0.01 0.01 81 1016.7
20260502043038 52 112 1.0 4.0 0.01 0.01 0.01 81 1016.8
20260502042522 52 112 2.0 4.0 0.00 0.00 0.00 80 1016.7
20260502042022 52 90 1.0 5.0 0.00 0.00 0.00 80 1016.8
20260502041537 52 84 3.0 7.0 0.00 0.00 0.00 80 1016.7
20260502041023 52 138 4.0 7.0 0.00 0.00 0.00 80 1016.5
20260502040527 53 144 4.0 7.0 0.00 0.00 0.00 80 1016.5
20260502040045 53 133 3.0 8.0 0.00 0.00 0.00 79 1016.5
20260502035523 53 151 4.0 8.0 0.00 0.00 0.00 79 1016.6
20260502035024 54 159 5.0 7.0 0.00 0.00 0.00 78 1016.6
20260502034538 54 184 3.0 4.0 0.00 0.00 0.00 78 1016.8
20260502034023 54 144 1.0 4.0 0.00 0.00 0.00 77 1016.8
20260502033522 54 111 1.0 3.0 0.00 0.00 0.00 76 1017.2
20260502033041 54 340 0.0 3.0 0.00 0.00 0.00 76 1017.6
20260502032522 54 321 0.0 3.0 0.00 0.00 0.00 76 1017.6
20260502032022 54 0 0.0 2.0 0.00 0.00 0.00 74 1017.3
20260502031540 54 0 0.0 3.0 0.00 0.00 0.00 72 1017.2
20260502031022 54 131 1.0 4.0 0.00 0.00 0.00 71 1016.8
20260502030523 54 131 2.0 4.0 0.00 0.00 0.00 72 1016.7
20260502030039 54 131 2.0 4.0 0.00 0.00 0.00 73 1016.5
20260502025522 54 129 2.0 5.0 0.00 0.00 0.00 73 1016.4
20260502025022 55 123 2.0 5.0 0.00 0.00 0.00 72 1016.4
20260502024541 55 161 2.0 6.0 0.00 0.00 0.00 69 1016.4
20260502024022 55 162 2.0 7.0 0.00 0.00 0.00 69 1016.4
20260502023522 55 155 4.0 7.0 0.00 0.00 0.00 69 1016.4
20260502023044 56 149 5.0 7.0 0.00 0.00 0.00 69 1016.3
20260502022521 56 149 5.0 7.0 0.00 0.00 0.00 68 1016.4
20260502022023 56 173 3.0 6.0 0.00 0.00 0.00 66 1016.3
20260502021538 56 190 1.0 3.0 0.00 0.00 0.00 65 1016.3
20260502021020 56 288 0.0 5.0 0.00 0.00 0.00 64 1016.3
20260502020523 56 0 1.0 11.0 0.00 0.00 0.00 65 1016.1
20260502020048 56 47 4.0 11.0 0.00 0.00 0.00 64 1016.0
20260502015523 56 48 6.0 10.0 0.00 0.00 0.00 63 1015.9
20260502015024 57 33 4.0 11.0 0.00 0.00 0.00 62 1015.9
20260502014538 57 28 7.0 12.0 0.00 0.00 0.00 60 1015.8
20260502014049 57 51 7.0 12.0 0.00 0.00 0.00 59 1015.6
20260502013522 57 59 8.0 12.0 0.00 0.00 0.00 59 1015.5
20260502013053 57 46 7.0 12.0 0.00 0.00 0.00 57 1015.5
20260502012522 57 53 4.0 11.0 0.00 0.00 0.00 57 1015.4
20260502012022 57 54 5.0 11.0 0.00 0.00 0.00 57 1015.2
20260502011543 58 60 4.0 12.0 0.00 0.00 0.00 57 1015.1
20260502011021 58 45 7.0 12.0 0.00 0.00 0.00 56 1015.0
20260502010521 58 60 8.0 13.0 0.00 0.00 0.00 56 1015.1
20260502010036 58 61 8.0 13.0 0.00 0.00 0.00 56 1015.1
20260502005521 58 41 7.0 10.0 0.00 0.00 0.00 56 1015.2
20260502005023 58 38 6.0 10.0 0.00 0.00 0.00 56 1015.3
20260502004538 58 29 6.0 10.0 0.00 0.00 0.00 55 1015.2
20260502004022 58 30 5.0 13.0 0.00 0.00 0.00 54 1015.0
20260502003522 59 41 7.0 14.0 0.00 0.00 0.00 54 1015.0
20260502003039 59 28 8.0 15.0 0.00 0.00 0.00 54 1015.0
20260502002522 59 38 9.0 15.0 0.00 0.00 0.00 53 1014.9
20260502002022 59 19 12.0 18.0 0.00 0.00 0.00 53 1014.8
20260502001556 59 28 11.0 18.0 0.00 0.00 0.00 52 1014.7
20260502001021 60 46 11.0 18.0 0.00 0.00 0.00 52 1014.7
20260502000522 60 40 11.0 18.0 0.00 0.00 0.00 51 1014.7
20260502000037 61 32 12.0 21.0 0.00 0.00 0.00 51 1014.6
20260501235522 61 348 13.0 21.0 0.00 0.00 0.00 48 1014.7
20260501235023 62 360 12.0 21.0 0.00 0.00 0.00 47 1014.6
20260501234539 62 37 9.0 17.0 0.00 0.00 0.00 46 1014.5
20260501234023 63 9 11.0 22.0 0.00 0.00 0.00 45 1014.5
20260501233522 63 34 10.0 22.0 0.00 0.00 0.00 43 1014.4
20260501233045 64 17 9.0 22.0 0.00 0.00 0.00 39 1014.3
20260501232520 64 5 7.0 13.0 0.00 0.00 0.00 38 1014.1
20260501232022 64 33 9.0 13.0 0.00 0.00 0.00 38 1014.0
20260501231539 64 32 7.0 13.0 0.00 0.00 0.00 38 1014.0
20260501231022 64 28 8.0 14.0 0.00 0.00 0.00 37 1014.1
20260501230522 65 40 9.0 14.0 0.00 0.00 0.00 36 1014.0
20260501230040 65 25 6.0 11.0 0.00 0.00 0.00 38 1013.9
20260501225524 65 47 7.0 10.0 0.00 0.00 0.00 35 1013.8
20260501225024 66 30 6.0 11.0 0.00 0.00 0.00 37 1013.8
20260501224545 66 11 5.0 12.0 0.00 0.00 0.00 34 1013.8